Weather Service Report


685 
ASUS43 KBIS 231710
RWRND 

NORTH DAKOTA REGIONAL WEATHER ROUNDUP
NATIONAL WEATHER SERVICE BISMARCK ND
1100 AM CST MON JAN 23 2017

NOTE: "FAIR" INDICATES FEW OR NO CLOUDS BELOW 12,000 FEET WITH NO
SIGNIFICANT WEATHER AND/OR OBSTRUCTIONS TO VISIBILITY.


NDZ001>003-009>011-017-231800-
NORTHWEST NORTH DAKOTA
  
CITY           SKY/WX    TMP DP  RH WIND       PRES   REMARKS
WILLISTON      CLOUDY    24  21  88 NE8       29.80S WCI  15          
MINOT          CLOUDY    27  21  78 W14       29.77R WCI  16          
MINOT AFB      CLOUDY    24  19  80 W16       29.77R WCI  11          
$$
 
NDZ018>021-031>035-040>046-231800-
SOUTHWEST NORTH DAKOTA
  
CITY           SKY/WX    TMP DP  RH WIND       PRES   REMARKS
BISMARCK       CLOUDY    30  24  78 SW3       29.80S                  
DICKINSON      CLOUDY    23  20  88 SE6       29.72S WCI  16          
GARRISON         N/A     30  24  78 W5        29.76S                  
HETTINGER ARPT FOG       22  21  96 E9        29.74R VSB 1/4 WCI  12  
$$
 
NDZ004>008-012>016-024-026-027-054-231800-
NORTHEAST NORTH DAKOTA
  
CITY           SKY/WX    TMP DP  RH WIND       PRES   REMARKS
GRAND FORKS    CLOUDY    32  24  72 W12       29.80S                  
GRND FRKS AFB  CLOUDY    31  23  73 W8        29.79F                  
DEVILS LAKE    CLOUDY    27  22  81 W20       29.78S WCI  13          
$$
 
NDZ022-023-025-028>030-036>039-047>053-231800-
SOUTHEAST NORTH DAKOTA
  
CITY           SKY/WX    TMP DP  RH WIND       PRES   REMARKS
FARGO          CLOUDY    35  29  78 W8        29.82S                  
JAMESTOWN      CLOUDY    29  22  75 W7        29.79S                  
$$ 

  


686 
ASUS43 KBIS 231710
RWRBIS

NWR BROADCAST TEXT
NATIONAL WEATHER SERVICE BISMARCK ND
1100 AM CST MON JAN 23 2017

NOTE: "FAIR" INDICATES FEW OR NO CLOUDS BELOW 12,000 FEET WITH NO
SIGNIFICANT WEATHER AND/OR OBSTRUCTIONS TO VISIBILITY.

  
CITY           SKY/WX    TMP DP  RH WIND       PRES   REMARKS
WILLISTON      CLOUDY    24  21  88 NE8       29.80S WCI  15          
MINOT          CLOUDY    27  21  78 W14       29.77R WCI  16          
MINOT AFB      CLOUDY    24  19  80 W16       29.77R WCI  11          
BISMARCK       CLOUDY    30  24  78 SW3       29.80S                  
DICKINSON      CLOUDY    23  20  88 SE6       29.72S WCI  16          
GARRISON         N/A     30  24  78 W5        29.76S                  
HETTINGER ARPT FOG       22  21  96 E9        29.74R VSB 1/4 WCI  12  
JAMESTOWN      CLOUDY    29  22  75 W7        29.79S                  
CARRINGTON     CLOUDY    28  25  86 NW6       29.80F                  
HAZEN          CLOUDY   N/A N/A N/A S6        29.79S                  
MANDAN         CLOUDY    27  23  86 CALM      29.79S                  
RUGBY            N/A     25  21  86 NW16      29.77R WCI  12          
STANLEY        PTSUNNY   21  21 100 NW10      29.78S WCI  10          
TIOGA          CLOUDY    21  21 100 NW14      29.78S WCI   8          
WATFORD CITY   CLOUDY    25  23  93 N8        29.78S WCI  16          
$$
  
CITY           SKY/WX    TMP DP  RH WIND       PRES   REMARKS
GRAND FORKS    CLOUDY    32  24  72 W12       29.80S                  
GRAND FORKS AF CLOUDY    31  23  73 W8        29.79F                  
DEVILS LAKE    CLOUDY    27  22  81 W20       29.78S WCI  13          
FARGO          CLOUDY    35  29  78 W8        29.82S                  
CAVALIER       CLOUDY    30  25  80 W12       29.77R                  
GRAFTON        CLOUDY    30  27  86 W14       29.80S WCI  20          
GWINNER        CLOUDY    32  28  86 W6        29.83F                  
ROLLA            N/A    N/A N/A N/A MISG        N/A                   
$$
  
CITY           SKY/WX    TMP DP  RH WIND       PRES   REMARKS
ABERDEEN       CLOUDY    30  23  75 W5        29.84F                  
MOBRIDGE       CLOUDY    29  23  78 E7        29.76F                  
BUFFALO          N/A     23  18  81 E3        29.62R                  
RAPID CITY     CLOUDY    21  20  96 SE5       29.64F WCI  15          
GLASGOW        LGT SNOW  27  24  89 VRB6      29.76S FOG              
SIDNEY         CLOUDY    27  23  85 NE10      29.78S WCI  17          
WOLF POINT     LGT SNOW  28  24  85 NE7       29.79S FOG              
GLENDIVE       CLOUDY    23  22  96 E6        29.76S WCI  16          
MILES CITY     CLOUDY    21  18  88 NE8       29.74S FOG     WCI  11  
BAKER          FOG       19  17  92 SE10      29.73R VSB 3/4 WCI   7  
$$
  
CITY           SKY/WX    TMP DP  RH WIND       PRES   REMARKS
BILLINGS       CLOUDY    20  18  92 NW5       29.70R WCI  13          
GREAT FALLS    CLOUDY    21  19  92 N8        29.75R WCI  11          
REGINA         CLOUDY    19  14  79 W15       29.77S WCI   5          
ESTEVAN        FRZ DRZL  21  19  93 W14       29.78R WCI   8          
$$

  

Return to Home page


Western Regional Climate Center, wrcc@dri.edu